Slidell, LA

10:56 PM CDT on July 23, 2017 (GMT -0500)
Slidell

Weather History for KASD - May, 2013

Change the Weather History Date:

Friday, May 3, 2013

  Actual Average (KNEW) Record (KNEW)
Temperature  
Mean Temperature 60 °F -  
Max Temperature 72 °F 82 °F 90 °F (2002)
Min Temperature 46 °F 67 °F 51 °F (2004)
Degree Days  
Heating Degree Days 5    
Growing Degree Days 10 (Base 50)    
Moisture  
Dew Point 59 °F    
Average Humidity 90    
Maximum Humidity 100    
Minimum Humidity 76    
Precipitation  
Precipitation 0.18 in - - ()
Sea Level Pressure  
Sea Level Pressure 29.92 in    
Wind  
Wind Speed 5 mph (North)    
Max Wind Speed 14 mph    
Max Gust Speed 23 mph    
Visibility 9 miles    
Events Rain    
Averages and records for this station are not official NWS values.
T = Trace of Precipitation, MM = Missing Value Source: NWS Daily Summary

Daily Weather History Graph

Daily Weather History Graph

Search for Another Location

Airport or City:

Trip Planner

Search our weather history database for the weather conditions in past years. The results will help you decide how hot, cold, wet, or windy it might be!

Date:

Astronomy

May. 03, 2013 Rise Set
Actual Time 6:13 AM CDT 7:38 PM CDT
Civil Twilight 5:48 AM CDT 8:04 PM CDT
Nautical Twilight 5:17 AM CDT 8:34 PM CDT
Astronomical Twilight 4:46 AM CDT 9:06 PM CDT
Moon 2:11 AM CDT (5/3) 1:58 PM CDT (5/3)
Length of Visible Light 14h 15m
Length of Day
13h 24m
Last Quarter, 37% of the Moon is Illuminated
May 3
Last Quarter
May 9
New
May 17
First Quarter
May 24
Full
May 31
Last Quarter

Hourly Weather History & Observations

Time (CDT) Temp. Dew Point Humidity Pressure Visibility Wind Dir Wind Speed Gust Speed Precip Events Conditions
12:53 AM 66.0 °F 64.9 °F 96% 29.92 in 10.0 mi Calm Calm - N/A   Mostly Cloudy
1:53 AM 66.0 °F 64.9 °F 96% 29.90 in 9.0 mi Calm Calm - N/A   Mostly Cloudy
2:00 AM 66.2 °F 64.4 °F 94% 29.90 in 9.0 mi Calm Calm - N/A   Mostly Cloudy
2:48 AM 66.2 °F 66.2 °F 100% 29.89 in 10.0 mi ENE 3.5 mph - N/A   Overcast
3:03 AM 66.2 °F 66.2 °F 100% 29.89 in 10.0 mi ENE 3.5 mph - N/A   Overcast
3:32 AM 66.2 °F 66.2 °F 100% 29.88 in 10.0 mi ENE 3.5 mph - N/A   Overcast
3:53 AM 68.0 °F 66.0 °F 93% 29.88 in 10.0 mi Calm Calm - N/A   Overcast
4:17 AM 66.2 °F 66.2 °F 100% 29.88 in 10.0 mi Calm Calm - N/A   Overcast
4:53 AM 66.9 °F 66.0 °F 97% 29.88 in 10.0 mi NNE 3.5 mph - N/A   Overcast
5:53 AM 66.0 °F 66.0 °F 100% 29.88 in 10.0 mi NNE 3.5 mph - N/A   Scattered Clouds
6:53 AM 66.9 °F 66.0 °F 97% 29.90 in 10.0 mi NE 3.5 mph - N/A   Overcast
7:53 AM 68.0 °F 64.9 °F 90% 29.90 in 10.0 mi ENE 6.9 mph - N/A   Overcast
8:53 AM 70.0 °F 66.0 °F 87% 29.91 in 10.0 mi East 4.6 mph - N/A   Overcast
9:29 AM 71.6 °F 66.2 °F 83% 29.90 in 10.0 mi SE 6.9 mph - N/A   Overcast
9:53 AM 72.0 °F 66.0 °F 81% 29.91 in 10.0 mi SE 4.6 mph - N/A   Overcast
10:14 AM 64.4 °F 60.8 °F 88% 29.92 in 10.0 mi WNW 13.8 mph 20.7 mph N/A   Overcast
10:30 AM 62.6 °F 60.8 °F 94% 29.93 in 1.8 mi NW 9.2 mph - 0.07 in Rain Heavy Rain
10:36 AM 62.6 °F 60.8 °F 94% 29.93 in 2.0 mi NW 8.1 mph - 0.09 in Rain Rain
10:48 AM 62.6 °F 60.8 °F 94% 29.93 in 5.0 mi NW 5.8 mph - 0.10 in Rain Light Rain
10:53 AM 62.1 °F 61.0 °F 96% 29.93 in 6.0 mi NW 6.9 mph - 0.10 in Rain Light Rain
11:01 AM 62.6 °F 60.8 °F 94% 29.92 in 10.0 mi NNW 6.9 mph 18.4 mph 0.00 in Rain Light Rain
11:18 AM 62.6 °F 60.8 °F 94% 29.92 in 10.0 mi NW 6.9 mph - 0.00 in   Overcast
11:53 AM 62.1 °F 61.0 °F 96% 29.92 in 9.0 mi NNW 8.1 mph - 0.00 in Rain Light Rain
12:51 PM 62.6 °F 60.8 °F 94% 29.91 in 2.0 mi Variable 5.8 mph - 0.03 in Rain Light Rain
12:53 PM 62.1 °F 61.0 °F 96% 29.91 in 2.0 mi NNW 9.2 mph - 0.04 in Rain Light Rain
1:16 PM 60.8 °F 60.8 °F 100% 29.91 in 1.8 mi Variable 5.8 mph - 0.03 in Rain Rain
1:23 PM 60.8 °F 60.8 °F 100% 29.90 in 3.0 mi NNW 4.6 mph - 0.04 in Rain Light Rain
1:53 PM 63.0 °F 60.1 °F 90% 29.91 in 10.0 mi NNW 6.9 mph - 0.04 in   Overcast
2:53 PM 61.0 °F 57.0 °F 87% 29.91 in 10.0 mi NNW 9.2 mph - 0.00 in   Overcast
3:53 PM 59.0 °F 53.1 °F 81% 29.90 in 10.0 mi NNW 10.4 mph 23.0 mph N/A   Overcast
4:27 PM 57.2 °F 53.6 °F 88% 29.91 in 10.0 mi NNW 12.7 mph 20.7 mph N/A   Overcast
4:53 PM 57.0 °F 53.1 °F 87% 29.91 in 10.0 mi NNW 11.5 mph 18.4 mph N/A   Overcast
5:12 PM 57.2 °F 53.6 °F 88% 29.91 in 10.0 mi NW 11.5 mph 19.6 mph N/A   Overcast
5:41 PM 57.2 °F 53.6 °F 88% 29.91 in 10.0 mi NNW 8.1 mph 17.3 mph N/A   Overcast
5:53 PM 57.9 °F 52.0 °F 81% 29.91 in 10.0 mi NNW 9.2 mph - N/A   Overcast
6:08 PM 57.2 °F 51.8 °F 82% 29.92 in 10.0 mi NNW 9.2 mph 18.4 mph N/A   Overcast
6:53 PM 57.0 °F 51.1 °F 81% 29.94 in 10.0 mi NNW 9.2 mph 17.3 mph N/A   Overcast
7:53 PM 53.1 °F 46.9 °F 80% 29.97 in 10.0 mi NNW 11.5 mph 21.9 mph N/A   Overcast
8:53 PM 51.1 °F 45.0 °F 80% 30.00 in 10.0 mi NNW 11.5 mph 23.0 mph N/A   Overcast
9:53 PM 51.1 °F 44.1 °F 77% 30.03 in 10.0 mi North 12.7 mph 19.6 mph N/A   Overcast
10:18 PM 50.0 °F 42.8 °F 76% 30.02 in 10.0 mi North 10.4 mph 19.6 mph N/A   Scattered Clouds
10:53 PM 48.9 °F 42.1 °F 77% 30.03 in 10.0 mi North 6.9 mph - N/A   Clear
11:53 PM 46.9 °F 42.1 °F 83% 30.02 in 10.0 mi North 8.1 mph - N/A   Clear